Погода в Казани

Погода в Казани : погода сейчас, прогноз погоды и архив. Всё, что Вы хотите узнать о погоде в Казани!

Хотите узнать прогноз погоды в Казани? Тогда Вам сюда: Погода в Казани

Поиск расширенной информации на нашем сайте:

Другие новости

Новости СМИ2

Главная страница сайта

Новости сайта

03.07.2017

Напоминаем, что на нашем специализированном сайте Метеоцентр.Азия вы можете получить высокодетализированные автоматические прогнозы погоды по пунктам России, СНГ и мира в авиационном формате (включающие направление и скорость ветра, видимость, явления погоды, количество и форму облачности, нижнюю и верхнюю границу облачности).


Погода в Казани - сегодня

Время (UTC), дата Ветер
(°,м/с) 
Видим.   Явления Облачность Т
(°С)
Тd
(°С)
f(%) Тe
(°С)
Pmin
(гПа)
dP
(гПа)
Po
(мм)
O2
(г/м3)
Тmin Tmax R s Состояние
почвы
21 22.02.18 280 (З) 10 км  {снег}  ясно 
-16.5 -18.4 85 -17  1024.8  0.4  757  326           
00 23.02.18 310 (СЗ) 10 км  {снег}  3/0 средняя 
[Ac lent]
-17.3 -19.2 85 -17  1025.5  0.6  757  327           
03 23.02.18 300 (СЗ) 10 км    8/0 средняя 
[Ac lent]
-18.3 -20.4 84 -21  1025.6  0.1  757  329  -18.3    0.0  54  равномерный
сухой снег
100% 
06 23.02.18 290 (З) 10 км    6/0 средняя, верхняя 
[Ac lent|Ci fib]
-17 -19.2 83 -17  1025.9  0.4  757  327  -19.4         
09 23.02.18 280 (З) 10 км    ясно 
-13.1 -15.7 81 -13  1025.6  0.1  757  322           
12 23.02.18 270 (З) 10 км    3/0 средняя, верхняя 
[Ac lent|Ci fib]
-10.3 -16.3 61 -12  1024.9  -0.5  757  318           
15 23.02.18 250 (З) 10 км    ясно 
-12.8 -17.5 68 -15  1024.9  -0.2  757  321    -10.2       
18 23.02.18 240 (ЮЗ) 10 км    ясно 
-13.8 -17.7 72 -14  1025.3  0.4  757  323           
21 23.02.18 тихо ()   10 км    10/0 
-15 -18.2 77 -15  1025.4  757  324           
00 24.02.18 150 (ЮВ) 10 км    10/0 средняя 
[Ac As]
-16.6 -18.9 82 -17  1025.6  0.1  757  326           
03 24.02.18 150 (ЮВ) 10 км    6/0 средняя 
[Ac lent]
-16.6 -18.8 83 -17  1025.6  757  326  -17      53  равномерный
сухой снег
100% 
06 24.02.18 230 (ЮЗ) 10 км  слаб. снег  10/10 1000 м 
[Sc]
-14.1 -16.8 80 -16  1026.2  0.7  758  323           
09 24.02.18 300 (СЗ) 10 км  {снег}  9/0 средняя, верхняя 
[As op|Cs]
-11 -15.2 71 -13  1026  758  319           
12 24.02.18 290 (З) 10 км  {снег}  ясно 
-9.8 -15.4 64 -12  1025.8  0.1  758  318           
15 24.02.18 270 (З) 10 км    3/3 1000 м 
[Sc]
-12.5 -16.5 72 -12  1026.2  0.2  758  321    -9.6  0.0     
18 24.02.18 300 (СЗ) 10 км    10/10 600 м 
[Sc]
-13.5 -16.2 80 -13  1026.5  0.3  758  323           
21 24.02.18 тихо ()   10 км  {снег}  9/0 средняя 
[As op]
-14.8 -16.8 85 -15  1026.5  0.1  758  324           
00 25.02.18 тихо ()   10 км  {снег}  ясно 
-17.8 -20.1 82 -18  1026.4  -0.3  758  328           
06 25.02.18 120 (ЮВ) 10 км    9/0 средняя 
[Ac lent]
-17 -19.5 81 -17  1026.4  0.2  758  327  -20.8         
09 25.02.18 080 (В) 10 км    ясно 
-13.5 -18.5 66 -16  1025.5  -0.6  757  322           
12 25.02.18 070 (В) 10 км    ясно 
-13.8 -18.6 67 -16  1025.4  -0.1  757  323           
15 25.02.18 050 (СВ) 10 км  {снег}  5/0 верхняя 
[Cs]
-15.9 -20.1 70 -18  1025.6  0.1  757  326    -12.4  0.0     
18 25.02.18 080 (В) 10 км  {снег}  ясно 
-16.5 -20.4 72 -19  1025.7  757  326           
21 25.02.18 060 (СВ) 10 км    ясно 
-18.2 -22.5 69 -18  1025.6  -0.2  757  328           
00 26.02.18 тихо ()   10 км    ясно 
-20.9 -24.6 72 -21  1025.7  0.1  757  332           
Время (UTC), дата Ветер
(°,м/с) 
Видим.   Явления Облачность Т
(°С)
Тd
(°С)
f(%) Тe
(°С)
Pmin
(гПа)
dP
(гПа)
Po
(мм)
O2
(г/м3)
Тmin Tmax R s Состояние
почвы

Для получения пояснительной информации подведите курсор к названию столбца.

ПОГОДА в Казани - архив

Всё, что Вы хотите узнать о погоде в Казани - удобно и подробно!

Выберите нужную дату (начиная с 1 января 2015* года) и нажмите кнопку "Найти".
Будут отображены архивные сводки погоды по пункту Казань, начиная с указанной даты.


Отображать данные в формате CSV (для использования в таблицах Excel)


Внимание! Наш архив погоды предназначен исключительно для личного некоммерческого использования в познавательных целях. Если Вам необходимы официальные справки о состоянии погоды (для производственных, юридических, коммерческих и т.п. целей), обращайтесь в органы Росгидромета.

*Примечание: данная дата относится к архиву по метеостанциям СССР (Россия, СНГ, Балтия).
Архив по метеостанциям Зарубежной Европы и Азии (кроме Китая) хранится 10 дней, по другим регионам земного шара (Китай, Африка, Америка, Австралия, Океания) - 1 день.

Казань - район местоположения метеостанции


Название, широта, долгота, высота метеостанции:
Казань 55.6°ш. 49.3°д. 116 м над ур. моря [Российская Федерация]

Дополнительная информация

В oтличие oт бoльшинства пoгoдных сайтoв мы публикуем пoдрoбную метеoинфoрмацию в детальнoм прoфессиoнальнoм фoрмате.

Характеристики температуры и влажнoсти вoздуха измеряются на высoте 2 м в тени вдали oт зданий и деревьев.
Скoрoсть ветра измеряется на высoте 10 м (на урoвне рoста челoвека скoрoсть ветра ниже в 1.5-2 раза). Если метеoстанция нахoдится в гoрoде или в лесу, тo скoрoсть ветра занижена на 2-4 м/с пo сравнению с oткрытым местoм. Скoрoсть ветра над акватoриями крупных рек и oзёр, а также на вершинах хoлмoв на 2-5 м/с выше, чем в oбычных услoвиях.
Атмoсфернoе давление в разных тoчках местнoсти мoжет значительнo oтличаться oт давления на метеoстанции, в зависимoсти oт услoвий рельефа (при пoдъёме на 10 м давление пoнижается примернo на 1 мм рт.ст.).